Wind_Speed
6 7 8 9 9 9 10 11 12 12 13 13 13 13 13 13 13 14 14 14 14 14 14 15 15 15 15 15 15 16 16 16 15 15 16 16 17 18 18 18 18 19 20
8 9 9 9 10 10 11 12 13 14 14 14 14 14 14 14 14 15 15 16 16 16 16 16 16 17 17 17 17 17 17 17 17 17 17 18 18 18 18 19 20 21 22
10 10 11 11 11 12 12 13 13 14 15 14 14 14 15 15 15 16 16 17 17 17 17 17 17 18 18 18 17 18 18 18 18 18 18 18 19 19 19 20 21 22 23
10 11 12 13 13 13 14 15 15 15 15 15 16 16 16 17 17 17 17 18 18 18 18 19 18 18 18 18 18 19 19 19 19 19 19 19 20 19 20 21 22 22 23
12 12 13 14 14 15 15 16 16 17 17 17 17 18 18 18 19 19 19 19 19 19 20 20 19 19 19 19 19 20 20 19 20 20 20 20 20 20 21 21 22 23 23
13 13 14 15 16 16 16 17 18 18 18 18 18 19 19 20 20 20 21 20 20 20 20 20 20 19 19 20 20 21 21 21 21 21 21 21 21 22 22 23 23 22 22
15 15 16 16 17 18 18 18 18 19 19 19 20 20 21 21 21 21 22 22 21 21 21 20 20 20 20 21 22 22 22 22 22 22 22 22 22 23 23 24 24 24 24
16 17 17 18 18 19 19 19 20 20 20 20 20 21 22 22 21 21 22 22 21 21 21 21 21 21 22 22 22 23 23 23 23 23 23 23 23 23 23 24 24 23 23
18 19 19 20 20 20 19 19 20 20 20 20 21 22 22 22 22 22 22 22 22 22 22 22 22 23 23 23 23 24 24 24 25 25 24 24 24 24 24 24 24 24 23
20 20 21 21 20 20 20 20 20 21 21 21 22 23 23 23 22 23 23 23 23 23 23 23 23 23 23 24 24 25 25 25 25 24 24 25 25 24 24 25 24 24 24
22 22 22 22 21 22 22 22 22 22 22 23 24 24 24 23 23 24 24 24 24 24 24 24 24 24 24 24 25 25 25 25 25 25 25 25 25 25 24 24 24 24 24
24 24 24 24 24 24 24 24 24 24 24 25 25 25 25 25 25 25 25 26 26 26 25 25 26 26 26 26 26 26 26 25 25 26 26 26 26 25 25 24 24 24 25
25 26 26 27 27 27 27 26 26 26 26 26 26 26 26 26 26 26 27 28 27 27 27 28 28 28 28 27 27 27 27 27 26 26 27 27 26 26 26 25 25 25 25
27 28 29 29 28 28 28 28 28 28 27 27 27 27 27 27 27 28 28 29 29 28 28 29 29 29 29 29 28 28 29 28 28 27 27 27 26 26 27 27 26 26 26
29 30 30 30 29 29 29 29 29 29 29 28 28 28 28 28 28 29 29 29 29 29 29 29 29 28 29 29 29 29 29 28 28 28 28 28 28 28 28 27 27 27 27
31 31 31 31 30 30 30 30 30 30 30 29 29 29 29 30 30 30 30 31 29 29 29 29 28 28 29 29 29 29 28 28 28 27 27 28 28 28 28 28 27 27 26
32 32 31 31 30 30 30 30 30 30 30 30 29 29 29 30 30 30 30 30 29 29 29 29 29 29 29 29 29 28 28 28 28 28 28 28 28 28 28 27 27 27 26
33 32 32 31 31 31 31 31 31 31 30 30 30 29 29 30 30 29 29 29 29 29 29 29 29 29 29 29 29 28 28 28 28 28 29 29 28 28 27 27 27 27 27
31 31 31 32 32 31 31 31 30 30 31 31 30 29 29 30 29 29 29 29 29 29 28 29 29 29 29 29 29 28 28 29 28 28 29 29 29 28 27 27 27 26 27
30 31 31 30 30 30 30 29 30 30 30 30 30 29 29 30 30 29 29 29 29 28 28 29 29 29 29 28 29 29 29 29 29 29 28 28 28 28 27 27 27 27 27
30 30 29 28 28 29 29 30 30 30 30 30 29 29 29 29 29 30 30 30 30 30 29 29 29 29 28 29 29 29 29 28 28 28 28 28 28 28 28 28 28 28 28
28 28 29 29 29 29 29 29 30 30 30 29 29 29 29 29 30 30 30 30 31 30 30 29 28 28 29 29 29 29 29 29 28 28 29 29 29 28 28 29 29 29 29
29 29 29 28 28 29 29 29 29 29 29 29 29 30 30 30 30 30 30 31 31 30 30 29 29 29 29 29 30 30 30 30 29 29 29 29 29 29 29 29 29 29 29
29 29 29 29 29 29 29 29 29 29 30 30 30 31 31 32 32 32 31 31 31 30 30 30 30 29 29 29 30 30 30 30 30 30 30 29 29 29 29 29 29 29 29
29 29 29 30 30 30 30 30 30 31 31 31 31 32 33 33 33 32 32 32 31 31 31 31 30 29 29 29 29 29 29 30 30 30 30 30 29 29 29 29 30 30 30
28 28 29 30 30 30 30 31 31 31 32 32 32 32 32 33 33 32 32 31 31 30 30 30 30 29 29 30 30 29 29 29 30 30 30 30 30 30 30 30 30 30 30
Wind_Direction
327 333 328 322 323 328 330 331 329 325 323 321 322 324 327 328 327 326 325 323 323 323 323 321 319 317 316 313 311 309 308 308 306 302 297 296 292 288 283 283 284 284 286
308 313 320 322 323 323 324 323 323 324 323 320 319 321 322 323 323 322 321 320 320 320 319 317 315 314 314 311 309 307 305 305 304 302 299 296 294 288 287 286 286 285 286
296 299 302 309 314 317 318 318 320 321 322 321 318 318 319 319 319 319 319 320 319 318 317 315 314 313 312 309 307 305 304 303 302 301 300 297 295 288 287 286 286 285 285
290 294 297 302 307 310 311 311 314 316 317 317 316 315 315 316 316 315 316 316 316 316 315 315 312 311 310 308 306 305 304 303 303 301 299 297 295 292 290 288 287 286 287
285 289 294 297 300 303 305 307 309 310 312 312 312 312 311 310 310 309 310 311 312 313 313 312 311 310 310 308 306 305 305 304 303 302 301 299 296 293 291 291 291 290 289
287 290 292 296 298 299 299 301 303 305 308 309 309 308 307 306 306 306 307 308 310 310 310 310 310 309 309 310 309 308 305 303 301 301 300 298 295 293 292 291 292 293 292
285 289 292 295 299 300 299 298 299 301 305 307 308 307 305 305 304 305 306 306 307 308 308 307 308 307 305 306 306 306 306 303 301 300 300 299 297 296 295 294 294 293 293
282 287 290 293 296 297 296 295 295 297 301 303 305 305 305 306 303 303 304 304 304 305 305 305 304 304 304 304 304 304 304 302 301 301 300 299 299 299 297 296 295 294 293
278 284 289 293 294 295 294 294 294 296 298 300 302 303 304 304 303 303 303 302 302 303 302 303 302 302 302 303 303 303 303 301 301 302 302 300 299 299 297 296 295 294 293
280 286 289 291 292 293 293 294 295 296 298 299 300 301 302 302 302 303 303 302 301 302 302 300 300 301 300 301 303 304 303 302 301 302 301 300 299 299 298 297 295 293 293
280 284 288 288 289 290 290 291 292 293 295 298 299 300 300 300 301 302 301 300 300 299 299 298 299 299 300 301 302 303 303 302 301 300 300 300 300 299 298 296 295 293 294
278 283 287 289 289 289 289 290 289 291 292 295 296 297 298 298 298 298 297 296 296 296 297 297 296 297 298 299 300 300 300 301 301 301 301 300 300 299 298 297 294 293 293
278 281 284 286 288 289 289 290 290 290 291 294 296 297 297 298 299 298 296 295 296 296 296 296 297 297 296 297 298 298 299 299 299 299 300 300 299 297 296 296 295 293 292
279 281 282 284 285 287 288 288 289 290 290 292 294 295 295 296 297 297 296 295 295 296 295 295 296 296 296 297 297 297 297 297 297 299 302 301 298 297 296 295 294 293 292
278 281 281 282 282 284 285 286 287 287 289 290 291 293 293 295 296 297 297 296 296 296 295 296 296 295 296 296 298 298 297 297 298 298 298 300 300 297 296 295 294 295 294
277 279 280 280 280 281 284 285 285 286 289 289 289 291 293 296 297 298 298 296 295 294 295 296 295 294 295 296 297 299 300 300 299 299 299 300 300 299 298 296 296 296 296
275 276 277 279 278 280 282 284 284 286 289 290 289 290 292 293 296 298 298 298 296 295 295 295 295 295 296 296 298 300 301 300 300 300 299 300 300 299 299 298 298 297 296
273 274 275 277 278 280 282 283 284 285 287 289 290 289 290 293 294 295 297 298 297 297 296 296 295 295 296 297 297 299 300 301 301 300 299 299 300 300 299 298 297 296 295
271 273 275 277 277 278 280 282 282 283 285 286 288 287 289 292 294 296 297 297 297 297 297 297 296 295 296 296 297 298 299 300 300 300 299 298 298 298 298 298 297 296 295
270 272 275 276 277 279 280 280 281 282 284 286 288 288 290 291 294 295 296 297 297 298 298 297 296 296 296 296 296 296 298 298 298 299 299 298 297 297 298 299 298 297 296
270 271 273 275 276 278 280 280 282 283 285 286 287 288 290 292 293 294 294 294 295 296 297 297 296 295 296 297 296 296 296 297 297 298 298 298 297 296 296 297 297 297 297
271 272 274 276 277 279 280 282 283 285 286 286 287 288 290 292 293 294 295 294 294 295 295 296 296 295 295 295 296 295 295 296 296 297 298 298 297 297 297 297 297 297 298
272 273 275 277 278 279 280 281 282 284 285 286 288 289 290 292 293 294 295 295 296 296 295 294 294 294 295 295 295 295 295 296 296 296 296 296 295 295 296 297 297 297 298
272 273 274 275 277 278 278 279 281 283 286 287 287 288 289 290 291 292 293 294 295 295 295 294 293 293 294 295 296 295 295 295 295 294 294 294 293 294 296 296 297 298 297
271 271 273 274 275 277 279 280 281 283 285 287 287 288 289 289 290 291 292 293 294 294 294 293 292 291 293 295 296 296 295 295 295 294 293 293 293 293 295 296 297 297 297
271 270 272 274 276 277 279 281 282 284 285 287 288 289 289 289 290 291 291 292 292 292 291 290 290 290 291 292 294 295 295 296 296 295 294 295 294 292 292 294 295 295 296
Height
5897 5896 5894 5893 5892 5892 5891 5889 5888 5886 5885 5883 5882 5880 5878 5877 5875 5873 5872 5870 5868 5866 5864 5862 5860 5858 5856 5854 5852 5850 5848 5847 5845 5843 5841 5840 5839 5838 5836 5836 5835 5834 5833
5895 5894 5893 5892 5891 5890 5889 5888 5886 5885 5883 5881 5880 5878 5876 5875 5873 5871 5869 5867 5865 5863 5861 5859 5857 5855 5853 5851 5849 5847 5845 5843 5841 5840 5838 5836 5834 5833 5832 5831 5830 5829 5828
5893 5892 5891 5890 5889 5888 5887 5886 5884 5882 5880 5879 5877 5876 5874 5872 5870 5868 5866 5864 5862 5860 5858 5856 5854 5852 5850 5848 5845 5843 5841 5839 5837 5836 5834 5832 5830 5829 5827 5826 5825 5823 5822
5890 5889 5888 5888 5887 5885 5884 5883 5881 5879 5878 5876 5874 5873 5871 5869 5867 5865 5863 5861 5859 5857 5855 5853 5850 5848 5846 5844 5841 5839 5837 5835 5833 5831 5829 5828 5826 5824 5822 5820 5819 5817 5816
5887 5886 5885 5884 5883 5882 5880 5879 5877 5876 5875 5873 5871 5869 5868 5866 5864 5862 5860 5858 5855 5853 5851 5849 5846 5844 5842 5840 5837 5835 5833 5831 5829 5827 5825 5823 5821 5819 5817 5815 5813 5811 5809
5884 5883 5881 5880 5879 5878 5876 5875 5873 5872 5870 5869 5867 5865 5864 5862 5860 5857 5855 5853 5851 5849 5847 5844 5842 5840 5838 5835 5833 5831 5828 5826 5824 5822 5820 5817 5815 5813 5811 5809 5807 5805 5803
5879 5878 5877 5876 5875 5873 5872 5871 5869 5868 5866 5864 5863 5861 5859 5857 5855 5853 5851 5848 5846 5844 5842 5840 5837 5835 5833 5831 5828 5826 5823 5821 5819 5817 5814 5812 5809 5807 5805 5802 5800 5798 5797
5874 5874 5873 5871 5870 5868 5867 5866 5865 5863 5861 5860 5858 5856 5854 5852 5850 5848 5845 5843 5841 5839 5837 5835 5832 5830 5828 5825 5823 5821 5818 5816 5813 5811 5809 5806 5803 5800 5798 5796 5794 5792 5790
5869 5869 5868 5866 5865 5863 5862 5861 5859 5858 5856 5854 5853 5851 5849 5846 5844 5842 5840 5838 5836 5834 5832 5829 5827 5824 5822 5820 5817 5815 5812 5810 5807 5805 5802 5799 5797 5794 5791 5789 5787 5785 5783
5864 5863 5862 5861 5859 5858 5857 5855 5854 5853 5851 5849 5847 5845 5843 5841 5839 5836 5834 5832 5830 5828 5826 5823 5821 5819 5816 5814 5812 5809 5806 5804 5801 5798 5796 5793 5790 5788 5785 5783 5780 5778 5776
5857 5857 5856 5855 5853 5852 5851 5850 5849 5847 5845 5843 5841 5839 5837 5835 5833 5831 5828 5826 5824 5822 5819 5817 5815 5812 5810 5808 5805 5803 5800 5797 5795 5792 5789 5787 5784 5781 5778 5776 5774 5772 5769
5850 5850 5849 5849 5847 5846 5845 5843 5842 5840 5838 5837 5835 5833 5831 5829 5827 5824 5822 5820 5818 5815 5813 5811 5808 5806 5804 5802 5799 5797 5794 5791 5788 5786 5783 5780 5777 5774 5772 5769 5767 5764 5762
5843 5843 5843 5842 5840 5839 5838 5837 5835 5833 5832 5830 5828 5826 5824 5822 5820 5818 5815 5813 5811 5808 5806 5804 5801 5799 5797 5795 5792 5790 5787 5784 5782 5779 5776 5773 5770 5767 5765 5762 5760 5757 5755
5836 5836 5835 5834 5833 5832 5831 5830 5828 5826 5825 5823 5821 5819 5817 5815 5812 5810 5808 5806 5803 5801 5798 5796 5794 5792 5789 5787 5785 5782 5779 5777 5774 5772 5769 5766 5763 5760 5757 5755 5752 5750 5747
5829 5828 5827 5826 5825 5824 5823 5822 5820 5819 5817 5815 5813 5811 5809 5807 5805 5803 5800 5798 5795 5793 5790 5788 5786 5784 5782 5779 5777 5774 5771 5769 5766 5764 5761 5759 5756 5753 5750 5747 5745 5742 5740
5820 5819 5819 5817 5817 5816 5815 5814 5812 5810 5809 5807 5805 5803 5801 5800 5797 5795 5793 5790 5787 5785 5783 5781 5779 5776 5774 5772 5769 5767 5764 5761 5759 5757 5754 5751 5749 5746 5743 5740 5737 5735 5732
5811 5810 5809 5808 5807 5807 5806 5805 5804 5802 5800 5798 5797 5795 5794 5792 5790 5787 5785 5782 5780 5778 5776 5773 5771 5769 5766 5764 5761 5759 5757 5754 5751 5749 5746 5744 5741 5738 5735 5732 5730 5727 5725
5802 5801 5800 5799 5798 5798 5797 5796 5795 5794 5792 5790 5789 5787 5785 5784 5781 5779 5777 5774 5772 5770 5768 5765 5763 5760 5758 5756 5753 5751 5749 5746 5744 5741 5738 5736 5733 5731 5728 5725 5722 5720 5717
5792 5792 5792 5791 5790 5789 5788 5787 5785 5785 5783 5782 5780 5778 5777 5775 5773 5770 5768 5766 5764 5762 5759 5757 5754 5752 5750 5748 5745 5743 5741 5738 5735 5733 5730 5728 5725 5723 5720 5718 5715 5712 5710
5783 5783 5783 5782 5781 5780 5779 5778 5777 5776 5774 5773 5772 5770 5768 5766 5764 5762 5760 5758 5755 5753 5750 5748 5746 5744 5742 5739 5737 5735 5732 5730 5727 5725 5722 5720 5717 5715 5713 5710 5708 5705 5702
5774 5774 5774 5773 5772 5771 5770 5769 5768 5767 5766 5764 5763 5761 5760 5758 5756 5754 5752 5749 5747 5744 5742 5740 5737 5735 5733 5731 5728 5726 5723 5721 5719 5716 5714 5711 5709 5707 5704 5702 5700 5697 5694
5765 5765 5765 5764 5764 5763 5762 5761 5759 5758 5757 5756 5754 5753 5751 5749 5747 5745 5743 5741 5738 5736 5733 5731 5729 5726 5724 5722 5720 5717 5715 5713 5710 5708 5706 5703 5701 5698 5696 5694 5691 5689 5686
5756 5756 5756 5755 5755 5754 5753 5752 5751 5749 5748 5747 5745 5744 5742 5740 5738 5736 5734 5731 5729 5726 5724 5722 5720 5718 5715 5713 5711 5708 5706 5704 5701 5699 5697 5694 5692 5689 5687 5685 5682 5680 5677
5746 5746 5746 5746 5745 5745 5744 5743 5742 5741 5740 5738 5736 5734 5733 5731 5729 5727 5724 5722 5720 5717 5715 5713 5711 5709 5707 5704 5701 5699 5697 5694 5692 5690 5687 5685 5683 5680 5678 5676 5673 5671 5668
5736 5737 5736 5736 5736 5735 5735 5734 5733 5732 5730 5729 5727 5725 5723 5721 5719 5717 5715 5713 5710 5708 5706 5704 5702 5699 5697 5695 5692 5690 5687 5685 5682 5680 5678 5675 5673 5671 5669 5667 5664 5662 5659
5727 5727 5727 5726 5726 5726 5725 5724 5723 5722 5721 5719 5717 5715 5713 5711 5709 5707 5705 5703 5700 5698 5696 5694 5692 5690 5688 5685 5683 5681 5678 5675 5673 5670 5668 5666 5664 5661 5659 5657 5655 5653 5650